Location: Navalespino
(40.5894°N, 4.2660°W)
Time: 15:48:01
(UTC+00:00)

SL-16 R/B - Pass Details

Date: 18 April 2024
Orbit: 841 x 845 km, 71.0° (Epoch: 24 May)

Event Time Altitude Azimuth Distance (km) Brightness Sun altitude
Exits shadow 23:23:19 21° 36° (NE) 1,832 4.2 -36.7°
Drops below altitude 10° 23:25:06 10° 31° (NNE) 2,470 5.0 -36.8°
Sets 23:27:35 0° 28° (NNE) 3,410 5.9 -36.9°
